Regional Weather Roundup
Issued by NWS

Home | Current Version | Previous Version | Graphics & Text | Print | Product List | Glossary On
Versions: 1 2 3 4 5 6 7 8 9 10 11 12 13 14 15 16 17 18 19 20 21 22 23 24 25 26 27 28 29 30 31 32 33 34 35 36 37 38 39 40 41 42 43 44 45 46 47 48 49 50
244
ASUS43 KLSX 190957
RWRMO

WEATHER SUMMARY FOR MISSOURI
NATIONAL WEATHER SERVICE SPRINGFIELD MO
400 AM CST SUN NOV 19 2017

NOTE: "FAIR" INDICATES FEW OR NO CLOUDS BELOW 12,000 FEET WITH NO
       SIGNIFICANT WEATHER AND/OR OBSTRUCTIONS TO VISIBILITY.
       CURRENT SKY AND/OR WEATHER CONDITIONS ARE NOT AVAILABLE FOR
       CHILLICOTHE AND FARMINGTON.

MOZ001>031-035>038-043-044-053-054-191100-
...NORTHERN AND WESTERN MISSOURI...

CITY           SKY/WX    TMP DP  RH WIND       PRES   REMARKS
KANSAS CTY INT CLEAR     30  25  81 NW7       30.24R WCI  23
LEE`S SUMMIT   CLEAR     32  25  75 NW10      30.24R WCI  24
ST JOSEPH      CLEAR     29  22  75 W7        30.25R WCI  22
CHILLICOTHE      N/A     31  20  63 NW6       30.21S WCI  25

$$
MOZ066>068-077>081-088>096-101>105-191100-
...SOUTHWEST MISSOURI...

CITY           SKY/WX    TMP DP  RH WIND       PRES   REMARKS
SPRINGFIELD    CLEAR     33  28  81 NW6       30.20R WCI  28
JOPLIN         CLEAR     33  29  85 CALM      30.25R

$$
MOZ032>034-039>042-045>050-055>058-069>072-191100-
...CENTRAL MISSOURI...

CITY           SKY/WX    TMP DP  RH WIND       PRES   REMARKS
COLUMBIA       NOT AVBL
JEFFERSON CITY CLEAR     33  24  69 NW5       30.18S WCI  29
ROLLA          CLEAR     32  25  75 NW12      30.15R WCI  23
SEDALIA        CLEAR     33  24  69 NW8       30.21S WCI  26
WHITEMAN AFB   CLEAR     32  23  70 W8        30.18R WCI  24
WARRENSBURG    PTCLDY    32  25  74 NW5       30.23R WCI  27

$$
MOZ051-052-059>065-191100-
...EAST CENTRAL MISSOURI...

CITY           SKY/WX    TMP DP  RH WIND       PRES   REMARKS
ST LOUIS INTL  PTCLDY    33  23  66 NW13      30.11S WCI  24

$$
MOZ072>076-082>087-097>100-106>115-191100-
...SOUTH CENTRAL AND SOUTHEAST MISSOURI...

CITY           SKY/WX    TMP DP  RH WIND       PRES   REMARKS
CAPE GIRARDEAU CLEAR     36  25  64 NW8       30.11R WCI  30
FARMINGTON     MOCLDY    34  25  69 NW8       30.11S WCI  27
POPLAR BLUFF   CLEAR     39  26  59 NW9       30.14R
WEST PLAINS    CLEAR     35  21  56 NW9       30.16R WCI  28

$$



USA.gov is the U.S. government's official web portal to all federal, state and local government web resources and services.